contact:dominique.lefevre@mio.osupytheas.fr, maurice.libes@osupytheas.fr, didier.mallarino@osupytheas.fr
Project:EMSO http://www.emso-fr.org/EMSO-France
Depth: 2436.0 m
Title:EMSO Ligure Ouest : Data MII capteur MICROCAT
DateTime_Computer,Latitude,Longitude,Temperature,Conductivity,Pressure,DateTime_Instrument
DateTime_Computer,Latitude,Longitude,degC,S m-1,dbar,DateTime_Instrument
2020-04-29T00:02:12Z,42.805,6.029,13.2967,4.59973,2470.133,2020-4-29T02:02:52Z
2020-04-29T00:05:15Z,42.805,6.029,13.2968,4.59972,2470.171,2020-4-29T02:05:56Z
2020-04-29T00:08:18Z,42.805,6.029,13.2965,4.59970,2470.18,2020-4-29T02:08:59Z
2020-04-29T00:11:21Z,42.805,6.029,13.2969,4.59970,2470.156,2020-4-29T02:12:02Z
2020-04-29T00:14:24Z,42.805,6.029,13.2968,4.59971,2470.194,2020-4-29T02:15:05Z
2020-04-29T00:17:28Z,42.805,6.029,13.2968,4.59973,2470.156,2020-4-29T02:18:08Z
2020-04-29T00:20:31Z,42.805,6.029,13.2971,4.59972,2470.171,2020-4-29T02:21:12Z
2020-04-29T00:23:34Z,42.805,6.029,13.2971,4.59973,2470.156,2020-4-29T02:24:15Z
2020-04-29T00:26:38Z,42.805,6.029,13.2968,4.59971,2470.156,2020-4-29T02:27:18Z
2020-04-29T00:29:41Z,42.805,6.029,13.2968,4.59971,2470.133,2020-4-29T02:30:21Z
2020-04-29T00:32:44Z,42.805,6.029,13.2969,4.59974,2470.156,2020-4-29T02:33:25Z
2020-04-29T00:35:47Z,42.805,6.029,13.2967,4.59970,2470.18,2020-4-29T02:36:28Z
2020-04-29T00:38:50Z,42.805,6.029,13.2969,4.59971,2470.156,2020-4-29T02:39:31Z
2020-04-29T00:41:54Z,42.805,6.029,13.2967,4.59970,2470.156,2020-4-29T02:42:34Z
2020-04-29T00:44:57Z,42.805,6.029,13.2969,4.59971,2470.171,2020-4-29T02:45:38Z
2020-04-29T00:48:00Z,42.805,6.029,13.2968,4.59971,2470.156,2020-4-29T02:48:41Z
2020-04-29T00:51:03Z,42.805,6.029,13.2971,4.59973,2470.156,2020-4-29T02:51:44Z
2020-04-29T00:54:07Z,42.805,6.029,13.2970,4.59972,2470.171,2020-4-29T02:54:47Z
2020-04-29T00:57:10Z,42.805,6.029,13.2969,4.59971,2470.11,2020-4-29T02:57:51Z
2020-04-29T01:00:13Z,42.805,6.029,13.2968,4.59973,2470.156,2020-4-29T03:00:54Z
2020-04-29T01:03:16Z,42.805,6.029,13.2969,4.59971,2470.11,2020-4-29T03:03:57Z
2020-04-29T01:06:20Z,42.805,6.029,13.2971,4.59971,2470.133,2020-4-29T03:07:00Z
2020-04-29T01:09:23Z,42.805,6.029,13.2966,4.59973,2470.133,2020-4-29T03:10:04Z
2020-04-29T01:12:26Z,42.805,6.029,13.2967,4.59971,2470.147,2020-4-29T03:13:07Z
2020-04-29T01:15:29Z,42.805,6.029,13.2967,4.59971,2470.133,2020-4-29T03:16:10Z
2020-04-29T01:18:33Z,42.805,6.029,13.2968,4.59971,2470.11,2020-4-29T03:19:13Z
2020-04-29T01:21:36Z,42.805,6.029,13.2969,4.59971,2470.171,2020-4-29T03:22:17Z
2020-04-29T01:24:39Z,42.805,6.029,13.2970,4.59971,2470.147,2020-4-29T03:25:20Z
2020-04-29T01:27:42Z,42.805,6.029,13.2970,4.59971,2470.11,2020-4-29T03:28:23Z
2020-04-29T01:30:46Z,42.805,6.029,13.2968,4.59971,2470.171,2020-4-29T03:31:26Z
2020-04-29T01:33:49Z,42.805,6.029,13.2968,4.59971,2470.087,2020-4-29T03:34:29Z
2020-04-29T01:36:52Z,42.805,6.029,13.2968,4.59971,2470.124,2020-4-29T03:37:33Z
2020-04-29T01:39:55Z,42.805,6.029,13.2971,4.59975,2470.147,2020-4-29T03:40:36Z
2020-04-29T01:42:59Z,42.805,6.029,13.2971,4.59973,2470.133,2020-4-29T03:43:39Z
2020-04-29T01:46:02Z,42.805,6.029,13.2969,4.59970,2470.147,2020-4-29T03:46:42Z
2020-04-29T01:49:05Z,42.805,6.029,13.2970,4.59971,2470.124,2020-4-29T03:49:46Z
2020-04-29T01:52:08Z,42.805,6.029,13.2968,4.59976,2470.124,2020-4-29T03:52:49Z
2020-04-29T01:55:12Z,42.805,6.029,13.2971,4.59978,2470.147,2020-4-29T03:55:52Z
2020-04-29T01:58:15Z,42.805,6.029,13.2970,4.59973,2470.133,2020-4-29T03:58:55Z
2020-04-29T02:01:18Z,42.805,6.029,13.2967,4.59977,2470.11,2020-4-29T04:01:59Z
2020-04-29T02:04:21Z,42.805,6.029,13.2972,4.59973,2470.124,2020-4-29T04:05:02Z
2020-04-29T02:07:25Z,42.805,6.029,13.2968,4.59976,2470.087,2020-4-29T04:08:05Z
2020-04-29T02:10:28Z,42.805,6.029,13.2970,4.59973,2470.11,2020-4-29T04:11:08Z
2020-04-29T02:13:31Z,42.805,6.029,13.2968,4.59973,2470.087,2020-4-29T04:14:12Z
2020-04-29T02:16:34Z,42.805,6.029,13.2968,4.59974,2470.171,2020-4-29T04:17:15Z
2020-04-29T02:19:38Z,42.805,6.029,13.2970,4.59973,2470.077,2020-4-29T04:20:18Z
2020-04-29T02:22:41Z,42.805,6.029,13.2971,4.59971,2470.11,2020-4-29T04:23:21Z
2020-04-29T02:25:44Z,42.805,6.029,13.2971,4.59972,2470.11,2020-4-29T04:26:25Z
2020-04-29T02:28:47Z,42.805,6.029,13.2970,4.59972,2470.087,2020-4-29T04:29:28Z
2020-04-29T02:31:50Z,42.805,6.029,13.2971,4.59975,2470.11,2020-4-29T04:32:31Z
2020-04-29T02:34:54Z,42.805,6.029,13.2968,4.59972,2470.1,2020-4-29T04:35:34Z
2020-04-29T02:37:57Z,42.805,6.029,13.2970,4.59973,2470.063,2020-4-29T04:38:38Z
2020-04-29T02:41:00Z,42.805,6.029,13.2971,4.59973,2470.124,2020-4-29T04:41:41Z
2020-04-29T02:44:03Z,42.805,6.029,13.2968,4.59973,2470.087,2020-4-29T04:44:44Z
2020-04-29T02:47:07Z,42.805,6.029,13.2968,4.59972,2470.087,2020-4-29T04:47:47Z
2020-04-29T02:50:10Z,42.805,6.029,13.2970,4.59973,2470.11,2020-4-29T04:50:51Z
2020-04-29T02:53:13Z,42.805,6.029,13.2968,4.59977,2470.1,2020-4-29T04:53:54Z
2020-04-29T02:56:16Z,42.805,6.029,13.2972,4.59973,2470.147,2020-4-29T04:56:57Z
2020-04-29T02:59:20Z,42.805,6.029,13.2969,4.59973,2470.133,2020-4-29T05:00:00Z
2020-04-29T03:02:23Z,42.805,6.029,13.2967,4.59973,2470.087,2020-4-29T05:03:04Z
2020-04-29T03:05:26Z,42.805,6.029,13.2971,4.59979,2470.11,2020-4-29T05:06:07Z
2020-04-29T03:08:29Z,42.805,6.029,13.2968,4.59976,2470.124,2020-4-29T05:09:10Z
2020-04-29T03:11:33Z,42.805,6.029,13.2968,4.59973,2470.124,2020-4-29T05:12:13Z
2020-04-29T03:14:36Z,42.805,6.029,13.2970,4.59973,2470.11,2020-4-29T05:15:17Z
2020-04-29T03:17:39Z,42.805,6.029,13.2972,4.59976,2470.087,2020-4-29T05:18:20Z
2020-04-29T03:20:43Z,42.805,6.029,13.2971,4.59973,2470.063,2020-4-29T05:21:23Z
2020-04-29T03:23:46Z,42.805,6.029,13.2970,4.59973,2470.087,2020-4-29T05:24:26Z
2020-04-29T03:26:49Z,42.805,6.029,13.2971,4.59973,2470.1,2020-4-29T05:27:30Z
2020-04-29T03:29:52Z,42.805,6.029,13.2971,4.59981,2470.087,2020-4-29T05:30:33Z
2020-04-29T03:32:55Z,42.805,6.029,13.2968,4.59973,2470.063,2020-4-29T05:33:36Z
2020-04-29T03:35:59Z,42.805,6.029,13.2966,4.59979,2470.1,2020-4-29T05:36:39Z
2020-04-29T03:39:02Z,42.805,6.029,13.2968,4.59979,2470.11,2020-4-29T05:39:43Z
2020-04-29T03:42:05Z,42.805,6.029,13.2968,4.59976,2470.1,2020-4-29T05:42:46Z
2020-04-29T03:45:09Z,42.805,6.029,13.2968,4.59973,2470.077,2020-4-29T05:45:50Z
2020-04-29T03:48:12Z,42.805,6.029,13.2971,4.59981,2470.087,2020-4-29T05:48:53Z
2020-04-29T03:51:16Z,42.805,6.029,13.2967,4.59977,2470.087,2020-4-29T05:51:56Z
2020-04-29T03:54:19Z,42.805,6.029,13.2972,4.59980,2470.04,2020-4-29T05:55:00Z
2020-04-29T03:57:22Z,42.805,6.029,13.2970,4.59976,2470.087,2020-4-29T05:58:03Z
2020-04-29T04:00:25Z,42.805,6.029,13.2965,4.59981,2470.087,2020-4-29T06:01:06Z
2020-04-29T04:03:29Z,42.805,6.029,13.2971,4.59976,2470.124,2020-4-29T06:04:09Z
2020-04-29T04:06:32Z,42.805,6.029,13.2970,4.59984,2470.1,2020-4-29T06:07:12Z
2020-04-29T04:09:35Z,42.805,6.029,13.2971,4.59979,2470.1,2020-4-29T06:10:16Z
2020-04-29T04:12:38Z,42.805,6.029,13.2972,4.59978,2470.063,2020-4-29T06:13:19Z
2020-04-29T04:15:42Z,42.805,6.029,13.2968,4.59983,2470.063,2020-4-29T06:16:22Z
2020-04-29T04:18:45Z,42.805,6.029,13.2971,4.59977,2470.063,2020-4-29T06:19:25Z
2020-04-29T04:21:48Z,42.805,6.029,13.2969,4.59981,2470.063,2020-4-29T06:22:29Z
2020-04-29T04:24:51Z,42.805,6.029,13.2971,4.59981,2470.087,2020-4-29T06:25:32Z
2020-04-29T04:27:55Z,42.805,6.029,13.2970,4.59977,2470.04,2020-4-29T06:28:35Z
2020-04-29T04:30:58Z,42.805,6.029,13.2974,4.59980,2470.1,2020-4-29T06:31:39Z
2020-04-29T04:34:01Z,42.805,6.029,13.2971,4.59978,2470.1,2020-4-29T06:34:42Z
2020-04-29T04:37:04Z,42.805,6.029,13.2971,4.59982,2470.063,2020-4-29T06:37:45Z
2020-04-29T04:40:08Z,42.805,6.029,13.2968,4.59984,2470.04,2020-4-29T06:40:48Z
2020-04-29T04:43:11Z,42.805,6.029,13.2971,4.59979,2470.049,2020-4-29T06:43:51Z
2020-04-29T04:46:14Z,42.805,6.029,13.2969,4.59980,2470.063,2020-4-29T06:46:55Z
2020-04-29T04:49:17Z,42.805,6.029,13.2971,4.59979,2470.04,2020-4-29T06:49:58Z
2020-04-29T04:52:20Z,42.805,6.029,13.2967,4.59981,2470.063,2020-4-29T06:53:01Z
2020-04-29T04:55:24Z,42.805,6.029,13.2971,4.59981,2470.077,2020-4-29T06:56:04Z
2020-04-29T04:58:27Z,42.805,6.029,13.2974,4.59979,2470.063,2020-4-29T06:59:08Z
2020-04-29T05:01:30Z,42.805,6.029,13.2968,4.59982,2470.03,2020-4-29T07:02:11Z
2020-04-29T05:04:33Z,42.805,6.029,13.2969,4.59978,2470.063,2020-4-29T07:05:14Z
2020-04-29T05:07:36Z,42.805,6.029,13.2972,4.59986,2470.077,2020-4-29T07:08:17Z
2020-04-29T05:10:40Z,42.805,6.029,13.2970,4.59981,2470.053,2020-4-29T07:11:20Z
2020-04-29T05:13:43Z,42.805,6.029,13.2972,4.59978,2470.04,2020-4-29T07:14:24Z
2020-04-29T05:16:46Z,42.805,6.029,13.2969,4.59981,2470.053,2020-4-29T07:17:27Z
2020-04-29T05:19:49Z,42.805,6.029,13.2968,4.59978,2470.04,2020-4-29T07:20:30Z
2020-04-29T05:22:53Z,42.805,6.029,13.2966,4.59981,2470.04,2020-4-29T07:23:33Z
2020-04-29T05:25:56Z,42.805,6.029,13.2968,4.59978,2470.053,2020-4-29T07:26:37Z
2020-04-29T05:28:59Z,42.805,6.029,13.2968,4.59979,2470.04,2020-4-29T07:29:40Z
2020-04-29T05:32:02Z,42.805,6.029,13.2971,4.59978,2470.03,2020-4-29T07:32:43Z
2020-04-29T05:35:06Z,42.805,6.029,13.2971,4.59976,2470.053,2020-4-29T07:35:47Z
2020-04-29T05:38:09Z,42.805,6.029,13.2971,4.59976,2470.003,2020-4-29T07:38:50Z
2020-04-29T05:41:12Z,42.805,6.029,13.2971,4.59978,2470.063,2020-4-29T07:41:53Z
2020-04-29T05:44:16Z,42.805,6.029,13.2968,4.59978,2470.04,2020-4-29T07:44:56Z
2020-04-29T05:47:19Z,42.805,6.029,13.2971,4.59978,2470.03,2020-4-29T07:48:00Z
2020-04-29T05:50:22Z,42.805,6.029,13.2973,4.59976,2470.04,2020-4-29T07:51:03Z
2020-04-29T05:53:26Z,42.805,6.029,13.2971,4.59975,2470.017,2020-4-29T07:54:06Z
2020-04-29T05:56:29Z,42.805,6.029,13.2971,4.59976,2470.03,2020-4-29T07:57:09Z
2020-04-29T05:59:32Z,42.805,6.029,13.2971,4.59975,2470.053,2020-4-29T08:00:13Z
2020-04-29T06:02:35Z,42.805,6.029,13.2968,4.59978,2470.017,2020-4-29T08:03:16Z
2020-04-29T06:05:38Z,42.805,6.029,13.2967,4.59976,2470.03,2020-4-29T08:06:19Z
2020-04-29T06:08:42Z,42.805,6.029,13.2971,4.59978,2470.077,2020-4-29T08:09:22Z
2020-04-29T06:11:45Z,42.805,6.029,13.2971,4.59976,2470.063,2020-4-29T08:12:26Z
2020-04-29T06:14:48Z,42.805,6.029,13.2968,4.59976,2470.053,2020-4-29T08:15:29Z
2020-04-29T06:17:51Z,42.805,6.029,13.2968,4.59974,2470.053,2020-4-29T08:18:32Z
2020-04-29T06:20:55Z,42.805,6.029,13.2971,4.59975,2470.026,2020-4-29T08:21:35Z
2020-04-29T06:23:58Z,42.805,6.029,13.2964,4.59976,2470.063,2020-4-29T08:24:39Z
2020-04-29T06:27:01Z,42.805,6.029,13.2968,4.59976,2470.017,2020-4-29T08:27:42Z
2020-04-29T06:30:04Z,42.805,6.029,13.2968,4.59976,2470.04,2020-4-29T08:30:45Z
2020-04-29T06:33:08Z,42.805,6.029,13.2971,4.59978,2470.017,2020-4-29T08:33:48Z
2020-04-29T06:36:11Z,42.805,6.029,13.2971,4.59979,2470.04,2020-4-29T08:36:52Z
2020-04-29T06:39:14Z,42.805,6.029,13.2968,4.59981,2470.04,2020-4-29T08:39:55Z
2020-04-29T06:42:17Z,42.805,6.029,13.2974,4.59982,2470.007,2020-4-29T08:42:58Z
2020-04-29T06:45:21Z,42.805,6.029,13.2970,4.59981,2470.04,2020-4-29T08:46:01Z
2020-04-29T06:48:24Z,42.805,6.029,13.2966,4.59976,2470.04,2020-4-29T08:49:05Z
2020-04-29T06:51:27Z,42.805,6.029,13.2972,4.59978,2470.077,2020-4-29T08:52:08Z
2020-04-29T06:54:30Z,42.805,6.029,13.2973,4.59977,2470.04,2020-4-29T08:55:11Z
2020-04-29T06:57:34Z,42.805,6.029,13.2970,4.59980,2470.03,2020-4-29T08:58:14Z
2020-04-29T07:00:37Z,42.805,6.029,13.2970,4.59978,2470.077,2020-4-29T09:01:18Z
2020-04-29T07:03:40Z,42.805,6.029,13.2971,4.59979,2470.053,2020-4-29T09:04:21Z
2020-04-29T07:06:43Z,42.805,6.029,13.2970,4.59978,2470.04,2020-4-29T09:07:24Z
2020-04-29T07:09:46Z,42.805,6.029,13.2970,4.59976,2470.04,2020-4-29T09:10:27Z
2020-04-29T07:12:50Z,42.805,6.029,13.2973,4.59977,2470.04,2020-4-29T09:13:30Z
2020-04-29T07:15:53Z,42.805,6.029,13.2968,4.59976,2470.04,2020-4-29T09:16:34Z
2020-04-29T07:18:56Z,42.805,6.029,13.2971,4.59977,2470.053,2020-4-29T09:19:37Z
2020-04-29T07:22:00Z,42.805,6.029,13.2971,4.59976,2470.063,2020-4-29T09:22:40Z
2020-04-29T07:25:03Z,42.805,6.029,13.2971,4.59976,2470.04,2020-4-29T09:25:44Z
2020-04-29T07:28:06Z,42.805,6.029,13.2973,4.59975,2470.03,2020-4-29T09:28:47Z
2020-04-29T07:31:09Z,42.805,6.029,13.2969,4.59976,2470.017,2020-4-29T09:31:50Z
2020-04-29T07:34:13Z,42.805,6.029,13.2970,4.59974,2470.053,2020-4-29T09:34:53Z
2020-04-29T07:37:16Z,42.805,6.029,13.2970,4.59978,2470.077,2020-4-29T09:37:56Z
2020-04-29T07:40:19Z,42.805,6.029,13.2966,4.59979,2470.063,2020-4-29T09:41:00Z
2020-04-29T07:43:22Z,42.805,6.029,13.2969,4.59976,2470.053,2020-4-29T09:44:03Z
2020-04-29T07:46:26Z,42.805,6.029,13.2970,4.59976,2470.063,2020-4-29T09:47:06Z
2020-04-29T07:49:29Z,42.805,6.029,13.2970,4.59975,2470.053,2020-4-29T09:50:09Z
2020-04-29T07:52:32Z,42.805,6.029,13.2973,4.59975,2470.04,2020-4-29T09:53:13Z
2020-04-29T07:55:35Z,42.805,6.029,13.2965,4.59975,2470.04,2020-4-29T09:56:16Z
2020-04-29T07:58:39Z,42.805,6.029,13.2968,4.59975,2470.063,2020-4-29T09:59:19Z
2020-04-29T08:01:42Z,42.805,6.029,13.2969,4.59978,2470.077,2020-4-29T10:02:22Z
2020-04-29T08:04:45Z,42.805,6.029,13.2974,4.59977,2470.04,2020-4-29T10:05:26Z
2020-04-29T08:07:48Z,42.805,6.029,13.2971,4.59978,2470.04,2020-4-29T10:08:29Z
2020-04-29T08:10:52Z,42.805,6.029,13.2969,4.59976,2470.077,2020-4-29T10:11:32Z
2020-04-29T08:13:55Z,42.805,6.029,13.2967,4.59979,2470.077,2020-4-29T10:14:36Z
2020-04-29T08:16:58Z,42.805,6.029,13.2974,4.59976,2470.04,2020-4-29T10:17:39Z
2020-04-29T08:20:01Z,42.805,6.029,13.2970,4.59978,2470.087,2020-4-29T10:20:42Z
2020-04-29T08:23:05Z,42.805,6.029,13.2967,4.59978,2470.063,2020-4-29T10:23:45Z
2020-04-29T08:26:08Z,42.805,6.029,13.2971,4.59976,2470.063,2020-4-29T10:26:48Z
2020-04-29T08:29:11Z,42.805,6.029,13.2969,4.59979,2470.063,2020-4-29T10:29:52Z
2020-04-29T08:32:14Z,42.805,6.029,13.2969,4.59976,2470.063,2020-4-29T10:32:55Z
2020-04-29T08:35:18Z,42.805,6.029,13.2968,4.59978,2470.063,2020-4-29T10:35:58Z
2020-04-29T08:38:21Z,42.805,6.029,13.2966,4.59978,2470.053,2020-4-29T10:39:02Z
2020-04-29T08:41:24Z,42.805,6.029,13.2971,4.59979,2470.077,2020-4-29T10:42:05Z
2020-04-29T08:44:27Z,42.805,6.029,13.2972,4.59977,2470.077,2020-4-29T10:45:08Z
2020-04-29T08:47:31Z,42.805,6.029,13.2970,4.59977,2470.063,2020-4-29T10:48:11Z
2020-04-29T08:50:34Z,42.805,6.029,13.2971,4.59976,2470.077,2020-4-29T10:51:15Z
2020-04-29T08:53:37Z,42.805,6.029,13.2970,4.59976,2470.087,2020-4-29T10:54:18Z
2020-04-29T08:56:40Z,42.805,6.029,13.2968,4.59976,2470.063,2020-4-29T10:57:21Z
2020-04-29T08:59:44Z,42.805,6.029,13.2971,4.59978,2470.1,2020-4-29T11:00:24Z
2020-04-29T09:02:47Z,42.805,6.029,13.2967,4.59976,2470.1,2020-4-29T11:03:28Z
2020-04-29T09:05:50Z,42.805,6.029,13.2969,4.59976,2470.077,2020-4-29T11:06:31Z
2020-04-29T09:08:53Z,42.805,6.029,13.2970,4.59977,2470.063,2020-4-29T11:09:34Z
2020-04-29T09:11:57Z,42.805,6.029,13.2971,4.59975,2470.077,2020-4-29T11:12:37Z
2020-04-29T09:15:00Z,42.805,6.029,13.2968,4.59976,2470.077,2020-4-29T11:15:40Z
2020-04-29T09:18:03Z,42.805,6.029,13.2972,4.59976,2470.087,2020-4-29T11:18:44Z
2020-04-29T09:21:06Z,42.805,6.029,13.2971,4.59978,2470.1,2020-4-29T11:21:47Z
2020-04-29T09:24:09Z,42.805,6.029,13.2970,4.59976,2470.087,2020-4-29T11:24:50Z
2020-04-29T09:27:13Z,42.805,6.029,13.2971,4.59976,2470.087,2020-4-29T11:27:53Z
2020-04-29T09:30:16Z,42.805,6.029,13.2970,4.59978,2470.1,2020-4-29T11:30:57Z
2020-04-29T09:33:19Z,42.805,6.029,13.2971,4.59978,2470.063,2020-4-29T11:34:00Z
2020-04-29T09:36:22Z,42.805,6.029,13.2968,4.59979,2470.087,2020-4-29T11:37:03Z
2020-04-29T09:39:26Z,42.805,6.029,13.2976,4.59975,2470.063,2020-4-29T11:40:06Z
2020-04-29T09:42:29Z,42.805,6.029,13.2967,4.59974,2470.087,2020-4-29T11:43:10Z
2020-04-29T09:45:32Z,42.805,6.029,13.2968,4.59975,2470.1,2020-4-29T11:46:13Z
2020-04-29T09:48:36Z,42.805,6.029,13.2973,4.59976,2470.124,2020-4-29T11:49:16Z
2020-04-29T09:51:39Z,42.805,6.029,13.2974,4.59973,2470.1,2020-4-29T11:52:20Z
2020-04-29T09:54:42Z,42.805,6.029,13.2974,4.59975,2470.077,2020-4-29T11:55:23Z
2020-04-29T09:57:45Z,42.805,6.029,13.2968,4.59975,2470.073,2020-4-29T11:58:26Z
2020-04-29T10:00:49Z,42.805,6.029,13.2971,4.59974,2470.063,2020-4-29T12:01:29Z
2020-04-29T10:03:52Z,42.805,6.029,13.2970,4.59976,2470.04,2020-4-29T12:04:33Z
2020-04-29T10:06:55Z,42.805,6.029,13.2970,4.59974,2470.063,2020-4-29T12:07:36Z
2020-04-29T10:09:58Z,42.805,6.029,13.2971,4.59975,2470.063,2020-4-29T12:10:39Z
2020-04-29T10:13:02Z,42.805,6.029,13.2969,4.59975,2470.087,2020-4-29T12:13:42Z
2020-04-29T10:16:05Z,42.805,6.029,13.2968,4.59974,2470.087,2020-4-29T12:16:46Z
2020-04-29T10:19:08Z,42.805,6.029,13.2969,4.59974,2470.077,2020-4-29T12:19:49Z
2020-04-29T10:22:11Z,42.805,6.029,13.2969,4.59974,2470.077,2020-4-29T12:22:52Z
2020-04-29T10:25:14Z,42.805,6.029,13.2968,4.59976,2470.1,2020-4-29T12:25:55Z
2020-04-29T10:28:18Z,42.805,6.029,13.2970,4.59975,2470.096,2020-4-29T12:28:58Z
2020-04-29T10:31:21Z,42.805,6.029,13.2968,4.59973,2470.11,2020-4-29T12:32:02Z
2020-04-29T10:34:24Z,42.805,6.029,13.2969,4.59974,2470.087,2020-4-29T12:35:05Z
2020-04-29T10:37:27Z,42.805,6.029,13.2968,4.59975,2470.087,2020-4-29T12:38:08Z
2020-04-29T10:40:31Z,42.805,6.029,13.2974,4.59976,2470.087,2020-4-29T12:41:11Z
2020-04-29T10:43:34Z,42.805,6.029,13.2970,4.59976,2470.147,2020-4-29T12:44:15Z
2020-04-29T10:46:37Z,42.805,6.029,13.2973,4.59975,2470.077,2020-4-29T12:47:18Z
2020-04-29T10:49:40Z,42.805,6.029,13.2970,4.59973,2470.11,2020-4-29T12:50:21Z
2020-04-29T10:52:44Z,42.805,6.029,13.2971,4.59973,2470.087,2020-4-29T12:53:24Z
2020-04-29T10:55:47Z,42.805,6.029,13.2973,4.59974,2470.087,2020-4-29T12:56:28Z
2020-04-29T10:58:50Z,42.805,6.029,13.2969,4.59973,2470.063,2020-4-29T12:59:31Z
2020-04-29T11:01:53Z,42.805,6.029,13.2973,4.59974,2470.1,2020-4-29T13:02:34Z
2020-04-29T11:04:57Z,42.805,6.029,13.2971,4.59975,2470.124,2020-4-29T13:05:37Z
2020-04-29T11:08:00Z,42.805,6.029,13.2967,4.59973,2470.11,2020-4-29T13:08:41Z
2020-04-29T11:11:03Z,42.805,6.029,13.2970,4.59974,2470.087,2020-4-29T13:11:44Z
2020-04-29T11:14:06Z,42.805,6.029,13.2968,4.59974,2470.087,2020-4-29T13:14:47Z
2020-04-29T11:17:10Z,42.805,6.029,13.2971,4.59973,2470.077,2020-4-29T13:17:50Z
2020-04-29T11:20:13Z,42.805,6.029,13.2968,4.59974,2470.087,2020-4-29T13:20:54Z
2020-04-29T11:23:16Z,42.805,6.029,13.2972,4.59973,2470.1,2020-4-29T13:23:57Z
2020-04-29T11:26:19Z,42.805,6.029,13.2971,4.59973,2470.1,2020-4-29T13:27:00Z
2020-04-29T11:29:23Z,42.805,6.029,13.2969,4.59973,2470.1,2020-4-29T13:30:03Z
2020-04-29T11:32:26Z,42.805,6.029,13.2971,4.59975,2470.087,2020-4-29T13:33:07Z
2020-04-29T11:35:29Z,42.805,6.029,13.2967,4.59974,2470.04,2020-4-29T13:36:10Z
2020-04-29T11:38:32Z,42.805,6.029,13.2964,4.59974,2470.1,2020-4-29T13:39:13Z
2020-04-29T11:41:36Z,42.805,6.029,13.2971,4.59973,2470.1,2020-4-29T13:42:16Z
2020-04-29T11:44:39Z,42.805,6.029,13.2965,4.59973,2470.063,2020-4-29T13:45:20Z
2020-04-29T11:47:42Z,42.805,6.029,13.2968,4.59971,2470.053,2020-4-29T13:48:23Z
2020-04-29T11:50:46Z,42.805,6.029,13.2973,4.59973,2470.063,2020-4-29T13:51:26Z
2020-04-29T11:53:49Z,42.805,6.029,13.2967,4.59973,2470.063,2020-4-29T13:54:30Z
2020-04-29T11:56:52Z,42.805,6.029,13.2973,4.59973,2470.1,2020-4-29T13:57:33Z
2020-04-29T11:59:56Z,42.805,6.029,13.2967,4.59973,2470.087,2020-4-29T14:00:36Z
2020-04-29T12:02:59Z,42.805,6.029,13.2968,4.59973,2470.04,2020-4-29T14:03:39Z
2020-04-29T12:06:02Z,42.805,6.029,13.2969,4.59973,2470.077,2020-4-29T14:06:43Z
2020-04-29T12:09:05Z,42.805,6.029,13.2967,4.59973,2470.053,2020-4-29T14:09:46Z
2020-04-29T12:12:08Z,42.805,6.029,13.2968,4.59973,2470.04,2020-4-29T14:12:49Z
2020-04-29T12:15:12Z,42.805,6.029,13.2967,4.59971,2470.1,2020-4-29T14:15:52Z
2020-04-29T12:18:15Z,42.805,6.029,13.2966,4.59973,2470.077,2020-4-29T14:18:56Z
2020-04-29T12:21:18Z,42.805,6.029,13.2968,4.59973,2470.063,2020-4-29T14:21:59Z
2020-04-29T12:24:21Z,42.805,6.029,13.2970,4.59972,2470.1,2020-4-29T14:25:02Z
2020-04-29T12:27:25Z,42.805,6.029,13.2968,4.59972,2470.04,2020-4-29T14:28:05Z
2020-04-29T12:30:28Z,42.805,6.029,13.2966,4.59971,2470.063,2020-4-29T14:31:09Z
2020-04-29T12:33:31Z,42.805,6.029,13.2967,4.59972,2470.04,2020-4-29T14:34:12Z
2020-04-29T12:36:34Z,42.805,6.029,13.2967,4.59971,2470.053,2020-4-29T14:37:15Z
2020-04-29T12:39:38Z,42.805,6.029,13.2968,4.59971,2470.04,2020-4-29T14:40:18Z
2020-04-29T12:42:41Z,42.805,6.029,13.2968,4.59972,2470.063,2020-4-29T14:43:22Z
2020-04-29T12:45:44Z,42.805,6.029,13.2966,4.59973,2470.04,2020-4-29T14:46:25Z
2020-04-29T12:48:47Z,42.805,6.029,13.2965,4.59971,2470.1,2020-4-29T14:49:28Z
2020-04-29T12:51:51Z,42.805,6.029,13.2968,4.59971,2470.04,2020-4-29T14:52:31Z
2020-04-29T12:54:54Z,42.805,6.029,13.2966,4.59972,2470.077,2020-4-29T14:55:35Z
2020-04-29T12:57:57Z,42.805,6.029,13.2966,4.59971,2470.04,2020-4-29T14:58:38Z
2020-04-29T13:01:00Z,42.805,6.029,13.2966,4.59973,2470.053,2020-4-29T15:01:41Z
2020-04-29T13:04:04Z,42.805,6.029,13.2966,4.59972,2470.04,2020-4-29T15:04:44Z
2020-04-29T13:07:07Z,42.805,6.029,13.2968,4.59973,2470.077,2020-4-29T15:07:47Z
2020-04-29T13:10:10Z,42.805,6.029,13.2971,4.59972,2470.017,2020-4-29T15:10:51Z
2020-04-29T13:13:13Z,42.805,6.029,13.2967,4.59972,2470.053,2020-4-29T15:13:54Z
2020-04-29T13:16:16Z,42.805,6.029,13.2968,4.59975,2470.03,2020-4-29T15:16:57Z
2020-04-29T13:19:20Z,42.805,6.029,13.2965,4.59972,2470.053,2020-4-29T15:20:00Z
2020-04-29T13:22:23Z,42.805,6.029,13.2968,4.59973,2470.063,2020-4-29T15:23:04Z
2020-04-29T13:25:26Z,42.805,6.029,13.2968,4.59972,2470.04,2020-4-29T15:26:07Z
2020-04-29T13:28:29Z,42.805,6.029,13.2967,4.59973,2470.017,2020-4-29T15:29:10Z
2020-04-29T13:31:33Z,42.805,6.029,13.2969,4.59971,2470.053,2020-4-29T15:32:13Z
2020-04-29T13:34:36Z,42.805,6.029,13.2967,4.59972,2470.04,2020-4-29T15:35:17Z
2020-04-29T13:37:39Z,42.805,6.029,13.2965,4.59971,2470.053,2020-4-29T15:38:20Z
2020-04-29T13:40:42Z,42.805,6.029,13.2968,4.59971,2470.04,2020-4-29T15:41:23Z
2020-04-29T13:43:46Z,42.805,6.029,13.2965,4.59973,2470.007,2020-4-29T15:44:27Z
2020-04-29T13:46:49Z,42.805,6.029,13.2966,4.59972,2470.017,2020-4-29T15:47:30Z
2020-04-29T13:49:52Z,42.805,6.029,13.2967,4.59972,2470.04,2020-4-29T15:50:33Z
2020-04-29T13:52:56Z,42.805,6.029,13.2970,4.59973,2470.04,2020-4-29T15:53:36Z
2020-04-29T13:55:59Z,42.805,6.029,13.2970,4.59976,2470.017,2020-4-29T15:56:40Z
2020-04-29T13:59:02Z,42.805,6.029,13.2968,4.59972,2470.04,2020-4-29T15:59:43Z
2020-04-29T14:02:06Z,42.805,6.029,13.2967,4.59971,2470.04,2020-4-29T16:02:46Z
2020-04-29T14:05:09Z,42.805,6.029,13.2968,4.59971,2470.017,2020-4-29T16:05:50Z
2020-04-29T14:08:12Z,42.805,6.029,13.2970,4.59972,2470.017,2020-4-29T16:08:53Z
2020-04-29T14:11:15Z,42.805,6.029,13.2967,4.59972,2470.017,2020-4-29T16:11:56Z
2020-04-29T14:14:19Z,42.805,6.029,13.2968,4.59973,2470.04,2020-4-29T16:14:59Z
2020-04-29T14:17:22Z,42.805,6.029,13.2969,4.59973,2470.04,2020-4-29T16:18:03Z
2020-04-29T14:20:25Z,42.805,6.029,13.2971,4.59976,2470.007,2020-4-29T16:21:06Z
2020-04-29T14:23:29Z,42.805,6.029,13.2965,4.59972,2470.017,2020-4-29T16:24:09Z
2020-04-29T14:26:32Z,42.805,6.029,13.2969,4.59973,2469.993,2020-4-29T16:27:13Z
2020-04-29T14:29:35Z,42.805,6.029,13.2967,4.59973,2470.017,2020-4-29T16:30:16Z
2020-04-29T14:32:38Z,42.805,6.029,13.2971,4.59972,2470.04,2020-4-29T16:33:19Z
2020-04-29T14:35:42Z,42.805,6.029,13.2968,4.59971,2470.017,2020-4-29T16:36:22Z
2020-04-29T14:38:45Z,42.805,6.029,13.2969,4.59972,2470.017,2020-4-29T16:39:25Z
2020-04-29T14:41:48Z,42.805,6.029,13.2970,4.59972,2470.017,2020-4-29T16:42:29Z
2020-04-29T14:44:51Z,42.805,6.029,13.2968,4.59973,2470.017,2020-4-29T16:45:32Z
2020-04-29T14:47:55Z,42.805,6.029,13.2968,4.59972,2470.007,2020-4-29T16:48:35Z
2020-04-29T14:50:58Z,42.805,6.029,13.2965,4.59971,2470.007,2020-4-29T16:51:39Z
2020-04-29T14:54:01Z,42.805,6.029,13.2971,4.59972,2469.993,2020-4-29T16:54:42Z
2020-04-29T14:57:04Z,42.805,6.029,13.2969,4.59973,2470.03,2020-4-29T16:57:45Z
2020-04-29T15:00:08Z,42.805,6.029,13.2970,4.59972,2470.007,2020-4-29T17:00:49Z
2020-04-29T15:03:11Z,42.805,6.029,13.2968,4.59974,2470.053,2020-4-29T17:03:52Z
2020-04-29T15:06:14Z,42.805,6.029,13.2971,4.59971,2470.04,2020-4-29T17:06:55Z
2020-04-29T15:09:18Z,42.805,6.029,13.2970,4.59972,2470.007,2020-4-29T17:09:58Z
2020-04-29T15:12:21Z,42.805,6.029,13.2967,4.59974,2470.017,2020-4-29T17:13:02Z
2020-04-29T15:15:24Z,42.805,6.029,13.2966,4.59974,2470.017,2020-4-29T17:16:05Z